sat.trackr.live / text

‹ back to catalog

STARLINK-3295

NORAD 50840 · 2022-001AP

PAYLOAD ACTIVE UNKNOWN

§ Identity

Operator
Country
US
Launch date
2022-01-06
Launch site
AFETR
Launch vehicle
Mass (kg)
RCS (m²)

Purposes: comms

External: N2YO · Heavens-Above · Gunter

§ Orbital elements

Epoch: 2026-09-19T23:21:37.192032Z

Period
93.90 min
Inclination
53.1622°
Eccentricity
0.0000865
Mean motion
15.33535819 rev/d
Perigee alt
464.7 km
Apogee alt
465.9 km
Semi-major
6,843.4 km
B*
4.5685e-5
RAAN
12.3849°
Arg perigee
88.2231°
Mean anomaly
271.8870°
Rev number
25,978

§ Raw data

STARLINK-32951 50840U 22001AP  26262.97334713  .00001130  00000+0  45685-4 0  99932 50840  53.1622  12.3849 0000865  88.2231 271.8870 15.33535819259785

JSON: /api/v1/satellites/50840 · /tle

For live sub-satellite position, see the globe view (requires WebGL).

§ Visibility from observer

Set your observer location to see the next 7 days of passes ≥ 10°. The values pass through the URL so the page stays shareable.

No JS? Fill the form by hand. The geolocation button needs JavaScript.